Find GalileoSat-7

NORAD ID: 40544 Int'l Des: 2015-017 Owner: GSAEU Country: I-EU Constellation: Galileo operational
MEOCIRCULAR

リアルタイム位置

3D地球を読み込み中...

GalileoSat-7について

説明を読み込み中...

次回通過

Passes for default location (London). Set your location on the main map for personalized predictions.

高度履歴

Loading altitude history...

軌道要素

1 40544U 15017A 26120.11307455 -.00000090 00000-0 00000+0 0 9997
2 40544 56.8042 342.9065 0002302 308.1059 51.9179 1.70476006 68384
Epoch: Apr 30, 2026 • Age: 28 hours

現在のステータス

高度 23219.7 km
速度 3.67 km/s
衛星直下点 -13.78°S, 21.12°E
打ち上げ日 Mar 27, 2015
運用期間 11 years
タイプ navigation

技術仕様

分類 Payload
質量 733.00 kg
乾燥質量 660.00 kg
総質量 733.00 kg
長さ 2.70 m
直径 1.60 m
スパン 14.50 m
形状 Box+2 pan
製造者 OHB
バスタイプ GalileoSat
フェーズステータス In Orbit
所有者/国 GSAEU/I-EU

Most Searched